Location: Eschertshofen
(49.3064°N, 11.5756°E)
Time: 15:28:26
(UTC+00:00)

Cosmos 2278 Rocket - Pass Details

Date: 18 September 2020
Orbit: 841 x 845 km, 71.0° (Epoch: 27 October)

Event Time Altitude Azimuth Distance (km) Brightness Sun altitude
Exits shadow 23:04:02 21° 325° (NW) 1,817 4.3 -39.3°
Drops below altitude 10° 23:07:58 10° 9° (N) 2,471 5.3 -39.3°
Sets 23:11:04 0° 26° (NNE) 3,410 6.1 -39.3°
